Wind_Gust
11 11 12 13 11 10 10 8 8 9 8 8 8 9 8 8 7 7 7 9 8 9 9 11 10 9 7 9 6 9 9 10 11 10 9 10 13 16 18 16 14 13 15 18 18 18 20 19 18 18 17 16 15 14 14 14 14 13 14 15 16 18 18 19 19 18 18 18 18 18 18 18 18 17 16 16 15 14 13 14 13 13 14 15 15
13 12 13 12 11 9 8 8 9 9 9 10 10 8 10 7 7 7 8 8 9 10 8 11 12 8 8 9 8 11 10 11 11 10 10 12 12 15 18 16 15 13 14 16 18 19 20 19 19 18 18 17 15 14 14 14 14 14 13 15 16 17 17 17 18 18 17 18 18 18 18 18 18 16 16 15 14 14 13 13 13 14 15 15 15
13 15 11 12 11 10 10 7 8 10 11 11 8 10 8 9 10 9 9 8 10 8 7 9 9 10 8 8 9 9 11 10 9 10 11 12 11 10 15 17 15 14 14 16 17 18 19 19 18 18 19 18 16 15 14 14 13 15 14 14 16 17 17 18 18 18 18 17 17 17 16 16 16 16 16 16 16 16 14 14 15 15 15 15 15
13 15 13 13 12 11 9 10 12 10 11 11 10 10 9 10 7 5 6 6 9 10 6 5 8 9 8 11 8 11 11 9 10 10 10 11 9 9 11 13 14 14 14 16 15 18 19 19 17 18 17 18 17 16 15 14 14 15 14 14 15 16 17 18 18 18 16 16 15 15 16 16 16 15 14 14 15 15 15 15 15 15 15 14 15
14 16 14 13 12 11 11 13 12 11 11 11 10 9 7 8 9 5 8 6 7 11 6 5 9 9 8 8 10 8 8 9 9 10 10 11 10 10 9 11 10 11 15 16 14 15 17 17 17 17 17 18 18 16 15 15 14 15 15 16 17 17 18 17 18 17 15 15 15 14 15 15 14 13 12 13 15 15 15 15 14 14 14 15 13
13 12 12 12 12 13 14 14 13 10 11 10 10 9 10 8 9 7 9 8 9 9 5 9 8 9 8 6 7 9 10 10 9 9 9 11 11 10 10 9 9 9 11 15 13 13 16 16 16 16 17 19 19 16 15 14 14 15 15 15 16 18 19 17 17 16 15 15 15 16 15 13 13 12 13 12 12 14 14 13 13 13 15 16 17
13 14 12 12 13 14 15 15 13 11 11 10 11 10 9 11 7 9 8 7 7 7 3 4 4 6 8 5 8 10 7 9 8 9 9 11 11 11 10 10 9 9 10 13 9 13 14 15 16 14 17 18 19 17 16 15 14 15 16 16 17 17 18 17 15 14 14 15 15 15 15 15 16 15 14 13 14 15 15 15 14 14 15 14 18
14 13 13 12 14 16 16 13 12 11 11 9 8 10 10 9 9 10 9 10 8 10 4 6 4 6 6 6 8 8 10 9 9 9 9 11 12 11 11 10 11 11 10 12 12 11 15 14 15 16 15 17 18 18 17 16 15 16 17 16 15 17 17 16 15 14 15 15 15 16 16 16 15 14 14 14 14 15 15 13 15 16 15 17 19
16 14 15 14 13 13 13 13 11 11 11 10 10 11 10 10 9 9 10 12 10 8 7 5 7 6 5 7 6 10 11 11 10 10 10 10 11 13 14 11 12 12 11 14 11 9 12 13 14 15 16 16 18 18 18 17 16 17 16 16 15 17 16 16 15 15 14 14 15 15 16 16 15 15 15 16 16 16 16 16 18 17 17 17 20
16 15 14 13 13 14 12 12 12 11 11 10 13 10 11 9 11 8 8 11 11 9 8 6 5 8 8 6 4 8 9 10 9 10 11 12 12 13 12 11 12 9 11 12 11 11 10 14 14 14 17 18 18 18 18 17 17 16 18 17 16 16 16 15 15 14 14 14 15 15 16 16 15 15 16 17 16 17 17 17 17 18 19 20 20
17 15 14 13 12 13 13 11 11 11 11 11 11 10 11 11 9 11 5 7 8 6 7 4 6 8 9 10 6 7 6 10 11 11 9 10 11 10 10 12 11 10 10 11 11 12 11 10 9 10 14 19 16 18 18 18 16 17 18 17 16 16 15 14 12 13 13 13 14 15 15 15 15 16 16 16 16 16 17 18 18 18 19 21 21
18 18 15 14 13 13 14 11 11 11 13 12 12 12 13 11 10 8 9 6 4 5 5 4 5 10 8 10 8 7 6 7 8 9 9 9 10 9 11 10 12 10 10 10 11 11 13 10 10 10 10 16 17 16 17 17 16 15 16 17 17 16 14 13 13 14 13 14 14 14 14 14 14 15 15 16 16 16 18 18 20 21 21 22 22
17 17 18 15 15 13 13 11 12 13 15 16 13 11 10 11 11 8 9 8 7 5 4 5 6 7 9 10 11 11 8 7 7 7 9 9 9 10 9 12 11 10 10 10 10 11 13 11 10 11 12 11 14 16 17 17 16 15 15 16 16 15 14 14 13 12 12 13 13 13 14 13 14 14 14 15 15 16 16 18 20 21 20 21 21
18 16 15 16 15 14 14 15 13 13 14 13 8 9 7 8 9 10 6 8 11 7 7 6 6 7 5 7 8 9 9 11 9 8 7 7 8 9 9 10 8 10 10 10 10 11 12 11 12 12 12 12 13 13 14 15 13 14 14 15 15 16 15 15 14 14 14 14 12 15 15 14 13 13 15 15 15 16 17 18 18 19 20 21 21
18 17 16 16 16 16 16 15 14 14 13 12 10 11 11 11 10 12 8 5 8 5 7 6 9 6 5 3 8 7 9 10 7 9 8 7 8 7 8 9 9 9 10 9 11 12 11 11 13 12 12 13 10 10 10 9 9 13 14 14 14 15 16 15 14 15 14 13 16 17 14 13 12 13 14 14 15 15 16 18 21 21 21 21 20
21 19 18 16 17 17 15 14 16 14 15 14 12 13 11 10 9 10 8 9 10 9 5 7 9 10 9 9 8 4 7 6 6 5 6 7 7 7 7 8 9 8 10 10 9 11 11 10 14 13 12 12 12 11 11 8 14 15 15 14 14 14 15 15 14 14 14 15 18 15 13 12 14 13 14 15 14 15 18 19 20 21 21 20 20
20 19 18 17 16 16 16 16 15 14 15 15 15 16 13 12 12 11 13 14 10 12 6 6 7 8 12 7 8 6 10 7 4 4 7 6 6 7 8 9 9 9 8 8 8 10 11 11 12 13 13 14 13 12 13 13 12 10 15 15 15 14 15 14 15 15 15 16 18 14 12 13 14 14 14 14 14 16 17 18 20 20 20 19 20
20 21 20 17 17 18 16 16 16 16 16 16 14 12 12 12 14 14 14 10 13 8 12 5 8 9 7 9 13 11 5 6 4 11 6 5 5 5 7 8 9 9 9 9 8 10 11 12 12 14 12 13 13 13 12 10 11 10 9 15 17 16 15 16 15 15 16 16 15 12 13 14 15 14 14 15 14 17 18 19 20 20 19 19 19
19 19 19 19 17 17 17 17 16 15 14 14 16 15 15 15 11 11 14 11 9 11 11 13 4 8 7 8 5 5 10 10 9 5 5 6 4 4 5 7 8 9 9 9 10 9 11 11 11 13 11 11 12 12 11 11 12 12 15 18 18 17 16 16 16 16 16 14 14 14 14 15 15 15 15 15 15 17 18 20 20 19 18 19 19
21 19 19 18 19 18 18 17 16 14 16 17 16 12 11 10 10 12 11 12 13 14 13 10 13 12 6 9 7 5 6 6 8 10 9 7 6 6 5 6 7 7 8 9 11 10 9 10 10 11 12 14 15 13 11 11 11 13 15 19 18 17 17 16 17 17 16 15 15 15 15 16 16 16 15 17 18 18 17 18 17 16 18 19 19
21 20 20 20 19 19 18 17 17 15 16 14 13 13 14 12 11 11 12 11 11 10 11 13 10 14 8 6 7 7 5 4 7 8 8 6 7 6 5 4 4 5 6 8 9 9 9 10 11 11 13 14 14 13 12 11 12 12 11 19 18 18 17 17 17 17 16 15 15 15 16 16 15 16 16 19 18 17 16 16 16 17 18 18 19
19 18 19 19 19 18 18 18 18 17 16 15 13 13 13 14 14 13 13 13 11 12 15 12 12 10 10 10 10 5 4 7 6 7 7 5 8 8 9 10 9 7 5 7 8 10 9 7 8 11 12 14 15 14 14 12 12 12 13 17 19 19 18 17 17 17 17 15 15 16 16 16 17 15 16 17 16 15 16 16 16 17 17 20 19
20 19 20 20 20 20 19 18 16 16 16 15 16 17 15 14 14 12 13 14 13 12 11 9 10 10 9 11 13 13 14 13 11 9 8 6 4 5 5 5 5 7 6 6 8 9 10 8 7 11 12 12 13 12 13 14 12 11 15 16 17 18 18 18 17 17 16 16 17 16 16 16 16 16 16 16 16 14 15 17 17 15 15 16 17
18 19 19 18 19 19 17 16 16 16 18 17 16 15 14 14 14 15 14 13 12 13 12 12 11 11 11 11 12 10 10 10 11 12 12 10 11 8 9 7 7 7 6 6 7 9 10 12 9 8 11 13 13 13 13 13 13 15 15 14 16 18 19 19 18 17 17 16 16 16 16 17 16 17 18 16 15 15 14 17 17 14 15 17 18
20 20 19 19 20 19 18 19 19 19 19 18 17 16 15 15 15 15 14 15 15 14 14 14 14 15 15 12 12 11 13 10 10 12 8 9 11 8 5 5 7 6 5 6 7 8 9 11 11 8 11 13 13 13 13 12 13 15 13 11 15 15 16 18 18 18 17 15 16 17 16 17 17 18 17 16 16 14 14 14 15 15 16 18 18
22 23 24 24 22 21 20 20 19 17 17 18 17 17 16 17 16 16 16 15 13 14 15 13 13 14 11 12 12 12 12 11 11 11 12 12 9 10 10 7 8 7 6 7 7 9 8 9 10 9 10 12 13 12 12 13 13 16 16 13 15 15 15 15 17 18 19 17 15 15 16 18 18 17 16 15 15 15 15 15 15 15 16 17 17
24 23 20 20 20 20 20 19 17 16 16 17 17 16 17 17 16 17 16 15 15 15 14 13 16 13 11 13 13 11 12 11 12 13 12 14 14 13 14 11 6 5 7 7 8 10 8 8 11 10 11 12 12 14 14 13 12 18 16 13 13 15 14 15 15 18 19 19 17 15 14 14 15 18 16 15 15 16 17 16 16 16 17 17 17
18 18 19 19 20 20 20 20 19 17 17 16 16 16 16 17 16 15 16 13 15 15 14 13 15 13 13 13 11 14 12 11 12 13 14 13 12 12 12 12 14 8 8 8 10 10 13 12 9 11 12 14 13 13 13 14 15 19 16 13 13 13 16 15 16 18 20 19 19 18 17 16 16 19 18 16 17 17 18 17 16 17 18 18 18
29 26 24 21 20 20 20 19 19 19 18 17 17 16 16 16 16 15 16 13 14 16 14 14 14 14 12 13 15 15 13 12 11 12 12 10 12 14 14 16 13 11 11 12 12 14 12 14 12 14 13 12 12 11 14 14 14 19 15 13 14 14 15 16 16 16 17 16 17 18 19 19 18 19 17 17 16 18 19 19 18 20 21 19 17
23 23 24 23 22 22 20 19 17 17 18 17 18 18 17 16 16 17 16 15 15 14 15 14 14 12 13 13 12 13 12 12 14 13 13 14 13 13 13 11 13 14 13 13 13 15 13 13 12 15 14 14 13 13 13 15 14 21 15 15 14 14 15 16 16 15 14 17 14 14 17 18 18 18 19 17 17 18 19 19 19 20 20 19 17
22 19 20 22 23 23 23 22 19 19 17 18 18 18 17 17 16 17 14 15 15 15 14 14 13 13 13 14 13 13 12 12 12 11 11 12 13 12 12 11 11 11 14 11 8 11 15 16 15 13 15 13 14 14 13 12 16 20 16 14 14 14 18 16 17 15 13 18 15 13 14 18 17 18 18 18 18 18 19 19 20 18 19 16 16
21 21 20 20 21 22 22 22 21 20 19 18 18 18 17 17 16 15 15 15 16 16 14 13 12 13 14 14 14 14 12 11 11 11 13 13 13 12 12 13 12 10 12 12 11 10 12 13 14 14 15 15 14 15 13 12 16 19 15 14 14 15 17 14 16 16 14 16 17 15 14 14 16 18 17 18 18 17 19 21 18 14 15 13 17
21 21 21 21 21 21 21 21 20 19 19 19 17 17 17 17 16 15 14 15 17 15 13 13 13 13 15 15 14 13 12 13 13 13 12 13 12 12 11 11 11 10 12 12 12 7 6 5 12 12 15 16 14 15 15 14 14 16 11 12 13 15 15 14 14 14 15 15 17 17 15 15 14 15 15 17 18 17 16 13 12 14 11 14 20
21 22 23 21 21 21 21 20 20 19 19 19 17 17 18 18 18 15 16 17 17 15 14 15 15 14 13 15 13 12 13 14 13 14 14 13 13 13 11 12 12 12 11 14 10 11 11 8 11 10 13 15 13 14 16 16 15 15 14 11 11 13 15 14 14 14 15 16 17 16 17 16 14 14 13 13 13 14 12 9 10 14 13 18 19
21 23 22 21 21 21 21 21 20 20 20 20 19 18 19 19 19 17 17 17 17 17 17 18 16 13 14 15 14 12 12 13 13 13 12 12 13 14 14 12 12 11 11 11 12 10 13 12 11 13 14 15 15 16 14 15 15 16 16 14 14 13 12 13 14 13 14 16 18 16 17 16 14 16 14 13 12 15 15 11 12 12 15 16 18
22 21 21 22 22 22 21 21 21 21 20 20 19 19 20 20 19 19 18 18 18 18 19 18 16 16 17 15 14 13 13 15 14 13 12 12 13 12 13 13 13 12 12 11 11 11 10 14 12 15 16 16 11 13 12 12 15 17 15 14 13 13 12 13 13 14 15 18 19 18 17 16 16 16 16 14 12 14 15 11 13 14 13 15 18
21 21 22 21 23 23 24 23 22 23 22 22 20 20 19 19 19 19 18 18 18 19 19 18 15 18 17 18 14 13 14 15 14 14 13 14 13 13 13 13 14 13 11 12 12 11 14 15 14 12 13 13 10 13 15 16 12 13 13 17 16 16 15 13 12 12 11 19 17 19 18 17 17 17 17 16 13 13 13 13 13 15 15 14 16
22 22 23 23 24 25 24 24 23 23 23 22 21 21 20 19 19 19 18 18 18 18 18 18 19 19 18 17 14 15 15 17 16 14 14 16 14 14 14 13 13 13 13 11 11 12 14 14 18 14 14 16 11 12 17 16 17 15 13 12 12 15 17 13 13 12 11 13 13 15 13 15 16 17 17 16 15 14 15 14 15 15 15 15 16
24 23 23 24 24 25 26 24 23 23 22 21 20 20 20 20 20 19 18 18 17 18 18 18 18 17 18 17 16 16 18 18 17 16 16 14 15 15 16 16 14 14 14 14 13 13 14 14 14 15 18 14 15 16 14 15 15 18 20 14 14 13 15 19 18 14 11 12 11 13 15 14 13 14 15 17 17 15 15 15 15 16 15 15 16
24 24 25 24 23 22 24 23 22 21 20 19 19 20 20 20 20 19 20 19 18 17 15 16 16 16 17 17 18 18 19 18 17 15 17 18 15 15 14 14 14 15 14 13 12 13 13 13 16 17 16 17 14 8 14 14 13 12 16 18 19 17 19 21 20 20 16 13 12 12 8 11 13 16 15 16 18 18 16 15 16 15 16 16 16
23 24 23 24 23 22 20 20 20 19 21 23 23 23 22 21 20 20 20 20 20 18 16 15 15 16 17 18 17 16 18 16 18 17 16 15 19 17 13 13 14 15 14 13 15 14 12 14 13 13 17 16 16 16 18 20 21 24 22 17 17 16 14 13 14 13 17 17 12 11 13 15 14 14 14 13 14 13 14 15 13 18 18 16 16
23 24 24 26 25 24 22 20 18 20 22 21 20 23 20 22 22 23 22 22 21 20 18 17 16 17 18 17 16 17 18 19 20 21 21 20 20 20 20 17 17 16 16 16 16 16 16 16 17 20 20 19 20 20 20 19 18 12 15 16 16 15 13 12 11 13 13 14 14 14 13 12 15 13 14 18 16 17 14 14 14 14 15 17 18
20 18 17 19 20 20 21 21 21 23 23 23 27 25 22 22 21 21 23 23 21 22 20 20 20 20 17 16 15 17 19 18 23 23 21 21 21 20 21 21 18 24 19 19 18 19 20 19 17 18 19 21 20 18 19 17 18 20 19 18 18 15 18 16 18 8 9 17 19 16 15 16 15 18 17 18 17 17 16 19 16 19 19 19 19
21 21 23 20 19 20 21 21 23 22 21 18 24 24 24 23 19 21 19 20 21 21 21 21 21 19 18 17 16 16 18 20 19 19 21 21 22 21 22 23 23 23 22 26 23 19 19 18 17 20 20 22 21 20 18 17 18 17 17 18 18 18 17 19 18 18 15 21 21 20 17 14 16 18 17 19 17 17 22 18 20 19 19 19 18
21 21 23 24 26 27 28 28 28 25 19 18 20 22 23 24 25 24 21 21 21 21 21 20 19 19 18 18 18 17 19 20 19 17 17 18 17 21 22 23 24 25 23 24 24 27 24 22 22 20 23 21 18 21 23 25 19 20 17 17 18 17 19 20 20 20 11 19 18 17 18 15 17 17 18 15 15 16 18 15 21 22 20 20 20
22 23 22 23 20 22 23 23 22 22 22 19 23 23 22 25 26 23 22 22 20 21 20 19 19 19 19 20 20 19 16 16 17 17 16 18 18 17 15 15 18 21 20 23 23 23 23 25 22 24 22 19 23 23 21 18 24 24 21 20 18 20 20 26 19 13 10 20 24 20 16 11 15 16 19 13 12 14 15 15 21 21 21 21 20
24 24 25 25 24 21 21 23 23 25 25 22 24 25 24 24 26 22 22 21 20 20 20 19 20 20 19 20 19 20 18 17 18 19 19 18 17 17 18 21 21 19 20 21 20 20 21 21 22 22 21 22 22 18 21 24 24 24 26 28 27 26 19 7 11 9 11 14 13 15 20 10 12 16 17 14 11 13 10 8 16 19 19 19 19
22 20 20 20 21 21 21 19 19 20 19 19 21 23 24 22 21 18 18 19 19 19 20 19 19 20 19 18 17 17 18 18 17 23 21 21 19 18 19 19 18 17 19 18 20 20 23 23 21 20 18 21 17 18 19 21 20 14 12 10 11 12 15 15 18 10 12 13 14 17 14 9 13 19 15 7 10 14 9 9 9 15 16 17 19
20 19 19 22 19 20 21 21 21 21 19 19 22 22 23 23 15 15 15 19 18 18 18 18 19 18 18 18 18 19 18 19 17 23 22 22 22 24 22 20 19 18 21 16 14 16 16 13 10 9 11 17 21 21 22 23 20 17 17 17 18 20 18 17 16 13 16 16 18 16 13 10 13 16 11 7 11 12 13 11 9 9 14 15 16
21 20 21 22 22 22 23 23 23 22 22 19 23 23 23 22 19 21 21 21 19 18 16 14 14 16 18 20 18 19 20 20 19 22 22 25 24 23 22 20 18 19 21 14 11 14 13 12 10 10 9 15 20 20 21 24 23 20 25 25 25 20 20 20 21 18 13 13 18 17 14 12 11 12 10 6 5 11 9 9 9 8 8 9 13
19 19 21 21 18 18 20 23 21 28 24 19 21 22 23 23 23 19 20 18 19 20 20 18 14 14 15 16 21 21 20 20 23 24 24 24 24 23 23 21 22 22 24 20 20 18 15 13 14 11 12 11 14 20 22 22 24 22 26 24 22 25 23 20 18 13 10 15 16 20 22 14 16 15 15 13 14 12 9 10 11 10 9 9 9
Wind_Speed
6 5 4 4 4 4 3 2 2 2 3 4 3 4 4 3 3 4 4 5 5 5 5 6 6 4 4 2 3 5 5 5 4 5 5 5 6 10 12 11 8 9 8 10 9 3 5 6 9 9 9 8 9 9 9 9 10 10 11 11 13 14 14 15 14 14 14 13 13 13 12 12 12 12 12 11 11 10 10 10 10 10 11 11 12
6 6 7 4 4 3 3 2 3 3 3 4 3 3 4 4 3 4 4 5 5 4 4 6 7 5 4 1 4 4 5 5 5 5 4 6 6 7 13 11 9 8 9 13 5 4 3 6 6 10 9 9 9 9 9 9 11 11 10 12 13 13 14 13 13 13 13 13 12 12 12 11 11 10 11 11 11 10 10 10 10 10 11 11 12
7 8 6 6 4 4 4 3 4 5 3 4 3 3 3 3 3 3 4 5 5 3 4 5 5 5 4 3 4 4 4 4 5 5 6 6 5 5 9 12 10 9 12 10 5 7 5 6 3 10 9 9 10 10 10 10 10 12 11 11 12 13 12 12 12 12 12 13 13 12 11 9 8 10 10 11 12 11 11 11 11 12 12 11 10
7 8 7 7 6 5 4 5 6 4 4 4 4 3 3 4 3 2 2 3 5 3 3 3 5 4 4 5 3 4 4 4 4 5 5 6 4 4 5 7 9 10 12 11 9 6 2 6 6 9 10 10 10 11 11 10 9 11 11 11 11 11 11 11 10 10 11 12 11 10 9 7 7 7 9 11 12 11 11 11 12 11 10 9 9
7 9 7 6 7 6 5 6 5 6 4 4 3 3 4 4 3 2 3 4 4 4 3 2 4 5 4 4 3 3 3 4 4 4 5 6 5 5 4 6 6 8 12 11 8 6 6 4 9 6 11 10 11 11 11 9 9 11 11 11 11 10 11 10 9 10 11 10 9 8 7 7 10 10 9 10 12 12 12 12 11 10 9 8 8
6 6 7 6 6 7 6 6 7 5 4 4 3 2 4 4 3 4 4 3 5 4 3 2 3 3 4 3 3 3 4 3 3 4 5 6 6 5 5 4 4 4 6 11 8 6 9 7 8 8 9 10 10 9 11 9 10 11 10 10 11 10 10 10 10 11 11 12 10 11 11 10 9 8 8 8 10 11 11 11 10 11 12 13 14
6 7 7 7 7 7 7 7 6 4 4 3 3 2 2 4 2 4 4 4 4 4 1 2 2 4 3 2 3 2 3 4 3 3 5 6 5 6 5 5 5 4 5 6 7 4 4 9 8 6 10 9 9 8 10 11 10 11 10 11 11 10 9 10 10 10 11 11 10 10 11 12 12 11 10 9 10 10 9 8 8 11 10 12 15
7 7 7 7 7 8 8 6 6 5 4 3 3 4 3 3 2 1 4 5 4 4 2 3 3 4 3 2 3 3 3 4 4 3 4 5 6 6 6 5 5 5 6 6 6 6 7 11 10 5 10 10 9 8 10 12 11 11 11 11 10 9 9 9 9 11 11 10 10 12 11 11 10 11 11 11 10 9 8 10 12 13 12 14 15
7 7 7 7 7 7 6 7 6 6 4 4 4 5 4 3 3 1 2 4 4 6 4 3 3 4 3 1 3 3 3 4 4 4 4 5 6 6 5 5 6 8 6 7 6 4 8 9 11 7 9 10 9 8 8 11 12 12 11 11 10 9 9 9 9 10 10 11 11 10 11 11 11 12 12 12 12 12 11 13 14 13 13 13 16
9 8 7 7 7 7 5 6 6 6 5 4 5 4 3 3 4 1 3 2 4 4 5 3 3 4 4 3 1 1 2 3 2 4 4 5 5 5 6 5 6 5 6 6 6 5 5 7 12 9 11 10 9 9 8 13 12 12 11 11 10 10 10 10 9 9 10 11 10 9 12 11 11 12 11 11 12 12 13 13 13 14 15 16 16
10 9 7 6 6 6 6 6 5 5 5 5 5 4 3 3 3 3 1 3 4 3 3 1 4 5 5 4 2 1 2 2 2 2 3 3 4 4 5 5 6 5 5 6 6 6 6 4 5 5 7 13 8 10 8 11 10 11 11 11 10 10 9 9 9 10 9 10 10 11 11 11 11 12 12 12 12 12 13 14 14 15 16 17 17
9 10 9 7 6 6 6 6 6 5 6 6 6 5 6 5 4 3 4 2 2 3 3 2 4 6 5 5 4 3 3 3 2 1 1 3 3 4 5 5 6 5 5 5 6 6 7 5 4 4 6 8 7 8 7 10 11 11 11 11 9 8 7 9 8 9 8 9 8 10 11 10 10 11 11 10 11 12 14 14 16 16 16 17 17
9 9 10 9 7 6 6 5 5 5 6 8 7 7 6 5 4 3 3 3 1 2 2 2 3 2 5 6 6 6 4 3 4 3 2 1 3 3 4 5 6 6 5 5 6 6 7 6 5 6 6 6 6 8 6 10 12 10 11 10 9 9 7 9 9 9 8 8 8 8 11 10 9 9 9 10 12 12 12 14 15 16 16 17 17
9 9 9 9 8 7 7 7 7 6 6 6 5 5 4 5 4 2 2 3 2 3 4 2 3 2 0 1 4 4 4 4 4 4 3 2 2 4 4 5 4 5 6 5 5 6 6 6 6 7 7 6 5 4 5 4 6 10 10 10 10 9 8 7 8 9 8 8 8 7 9 11 9 7 8 9 11 12 13 14 14 15 16 17 17
9 9 8 9 9 8 7 7 7 7 6 6 5 6 6 6 6 5 2 2 2 2 3 2 2 3 3 1 1 1 3 3 2 5 4 2 2 3 4 5 5 5 5 5 6 5 6 6 7 6 7 7 4 5 5 4 4 7 8 11 11 10 9 8 9 9 9 10 9 8 6 10 8 8 8 8 10 11 12 14 16 15 15 16 16
10 10 9 9 10 9 7 7 7 7 7 7 6 7 6 6 5 6 4 3 2 2 2 4 4 4 2 0 1 1 1 2 2 2 2 3 2 3 3 4 4 4 5 6 5 6 5 5 8 7 7 6 6 6 5 4 6 9 10 11 11 11 9 8 8 8 9 10 8 8 6 8 8 8 7 9 11 11 14 15 16 17 15 15 16
11 11 10 10 9 9 9 8 8 7 7 7 6 7 7 7 7 6 7 6 4 2 1 3 5 3 6 2 2 1 3 2 1 1 3 2 2 2 3 3 3 4 4 4 4 5 6 6 7 7 7 8 5 5 6 5 5 6 8 12 12 11 10 8 8 7 10 8 9 7 6 9 8 7 8 10 11 13 13 13 15 14 14 14 15
10 11 10 9 9 10 10 9 8 7 7 7 7 6 6 6 7 7 7 6 6 5 3 1 3 4 4 3 4 1 0 1 1 2 3 2 1 1 2 2 2 3 2 3 4 5 5 6 7 8 7 7 7 7 6 5 3 3 3 7 13 12 10 9 9 7 13 9 9 7 6 9 8 7 9 9 11 14 13 13 16 15 14 13 14
11 11 11 11 10 10 10 10 9 8 7 7 8 8 7 7 6 6 7 6 5 6 6 5 2 2 4 4 3 2 3 5 3 2 1 1 1 1 1 2 3 4 4 4 4 5 6 6 6 7 6 6 6 7 6 5 6 6 8 10 12 12 11 10 10 8 12 10 10 9 8 9 10 8 8 10 11 13 13 15 15 15 14 14 14
10 10 10 10 9 10 10 10 9 8 8 8 8 7 6 6 6 7 6 7 8 8 6 6 6 2 2 4 3 2 3 2 4 5 3 3 2 2 1 1 2 3 4 4 4 4 5 5 5 6 6 8 8 7 6 5 6 7 7 11 11 12 12 10 11 9 12 9 11 10 9 9 9 10 10 13 14 14 13 14 14 13 13 15 14
10 10 12 12 11 11 11 10 10 9 8 8 7 8 9 8 7 6 7 6 6 6 5 6 6 6 3 2 3 3 1 1 1 2 3 3 2 2 2 1 1 2 3 4 4 4 4 5 6 6 6 7 6 6 6 6 6 7 6 12 12 12 12 11 11 10 9 10 11 11 10 11 10 10 12 14 14 13 13 13 13 13 12 14 15
11 10 10 11 11 11 10 11 11 10 9 9 8 8 8 8 9 8 8 8 6 7 8 6 6 6 5 5 4 3 2 1 1 2 3 1 3 4 4 5 4 3 1 3 4 5 5 3 4 6 7 7 6 6 6 6 5 6 6 11 12 12 12 10 11 9 10 11 12 11 12 12 12 11 11 13 12 11 11 13 12 12 13 16 14
10 10 11 11 12 12 11 10 9 9 9 9 9 9 9 8 8 8 9 9 7 7 6 6 6 6 6 6 6 6 6 6 6 4 4 2 1 1 1 1 1 3 2 3 3 3 4 3 3 5 6 7 6 6 6 6 8 7 9 9 10 11 12 11 12 11 11 11 13 11 11 11 12 12 11 10 11 11 12 13 11 9 10 13 12
10 10 10 11 10 10 10 9 9 9 10 9 9 9 8 8 8 8 8 8 8 7 7 7 7 6 6 6 6 6 6 6 6 6 6 5 5 4 4 3 3 2 2 2 3 3 4 5 4 4 6 7 6 5 5 6 7 12 8 9 10 11 12 12 13 12 12 11 12 12 12 12 12 12 12 12 11 11 11 14 13 11 12 13 12
10 11 11 11 9 9 9 10 10 10 10 10 10 10 9 8 9 9 9 9 8 8 7 8 8 8 7 7 7 6 7 6 5 6 5 3 5 3 1 1 3 2 2 3 2 4 4 5 5 4 5 7 6 6 6 6 6 10 9 8 11 10 11 13 12 13 12 11 13 13 12 13 12 12 12 11 11 10 10 11 11 12 13 14 13
10 11 10 10 10 11 11 12 11 10 10 11 10 10 10 9 9 9 10 9 7 9 8 8 8 8 6 6 7 7 7 6 7 6 6 5 4 6 4 2 3 3 2 2 3 4 4 4 5 4 5 6 6 5 6 6 6 13 12 8 10 11 10 11 12 14 13 11 12 12 13 14 14 14 12 12 12 11 11 11 12 12 12 13 13
8 8 9 10 11 10 10 10 9 9 10 10 9 9 10 9 9 10 9 8 9 8 8 8 7 8 7 7 7 6 7 6 7 7 7 7 7 6 7 5 2 2 3 3 3 5 3 4 5 4 6 6 5 6 6 6 7 12 11 6 6 12 9 11 10 13 14 13 11 12 9 12 13 14 12 11 12 12 10 10 10 12 13 13 14
5 5 9 11 11 11 11 11 10 10 10 10 9 9 9 10 8 8 9 6 8 9 8 8 8 8 9 7 6 7 6 6 7 7 8 7 6 6 6 7 7 4 3 3 4 4 7 5 4 6 6 7 6 6 8 9 7 12 11 6 6 7 10 11 10 12 14 13 12 12 12 10 13 13 12 12 13 12 12 12 11 12 14 13 12
14 14 14 12 11 12 12 11 10 10 10 10 10 10 10 9 9 9 9 8 8 9 8 8 8 7 7 9 8 7 7 7 6 6 7 6 6 7 7 8 7 5 5 5 5 6 6 7 5 7 7 7 5 5 6 7 9 10 7 6 7 6 10 12 11 11 11 10 9 12 13 14 14 15 14 13 13 14 12 13 13 12 13 14 13
10 10 12 14 13 14 12 11 10 10 11 10 10 11 10 9 9 9 9 8 8 7 8 8 8 7 7 7 7 7 6 7 7 7 7 7 7 7 7 6 7 7 5 5 5 7 6 7 6 6 7 7 6 6 5 6 10 12 8 6 7 6 11 12 12 11 9 9 7 8 10 13 14 14 14 13 13 14 15 13 14 13 12 12 11
11 11 11 12 13 13 13 13 11 11 10 10 11 10 10 9 9 9 8 9 8 9 8 8 7 7 8 9 7 7 6 7 7 6 6 7 7 7 6 6 7 6 7 6 2 3 7 7 7 7 7 8 7 5 5 5 9 11 8 6 7 9 12 10 12 11 10 10 8 6 8 11 13 13 14 14 13 14 13 14 15 14 13 12 12
12 12 11 12 12 13 12 12 12 12 11 11 11 10 9 9 9 8 8 9 9 9 8 7 6 7 8 9 8 7 6 6 6 7 7 7 7 7 7 7 6 6 7 6 6 3 6 6 7 8 9 8 7 7 7 5 7 13 7 5 6 10 8 6 12 12 10 11 10 9 10 10 11 12 13 14 14 13 15 15 13 11 11 10 14
12 12 12 13 13 12 12 11 12 11 12 11 10 9 9 10 9 9 8 9 10 8 7 8 8 8 9 9 9 8 7 7 7 7 7 7 6 6 6 6 6 6 7 6 6 3 1 1 6 6 8 8 7 8 7 6 6 8 6 5 6 6 6 6 7 12 12 12 11 11 11 11 11 12 13 14 14 13 11 11 11 10 7 10 16
12 12 12 11 11 12 11 12 11 11 11 11 10 9 10 10 9 7 8 9 9 9 8 9 9 8 8 9 8 8 8 9 8 8 7 7 7 6 6 6 6 7 6 7 5 6 5 3 5 5 7 8 6 7 9 8 7 7 8 6 5 7 6 6 7 7 13 13 13 13 12 12 12 12 12 10 11 11 9 3 6 10 11 11 15
11 11 11 11 11 11 10 10 11 11 11 11 10 11 11 11 11 9 9 10 10 10 10 11 10 8 9 9 8 7 6 8 8 8 7 8 7 7 8 7 7 7 7 6 6 5 6 6 6 7 7 8 7 8 8 7 8 8 8 7 6 6 5 6 7 6 12 14 15 14 14 13 12 13 12 11 8 12 11 6 4 8 12 13 15
11 10 10 11 10 11 11 10 10 11 11 10 10 11 12 12 11 11 11 10 11 11 11 11 10 9 11 9 8 8 8 9 8 7 7 7 7 6 7 7 7 8 7 6 6 6 4 7 7 8 8 8 5 7 6 6 7 8 7 6 6 6 6 6 6 7 10 15 16 15 15 14 14 14 14 12 9 11 12 9 6 6 8 13 16
10 10 10 9 10 11 11 12 11 11 11 11 11 11 10 10 11 11 11 10 11 11 11 11 9 10 10 10 8 8 9 9 8 8 7 9 8 7 7 7 7 7 6 7 6 6 7 7 7 5 7 6 4 6 7 7 6 6 6 8 8 8 7 7 6 6 9 15 14 16 15 14 14 15 15 14 11 11 11 10 9 9 10 11 13
11 11 11 11 11 12 11 12 11 11 11 11 11 11 11 10 9 10 10 10 11 11 10 10 10 10 10 9 8 8 9 10 9 8 8 10 8 8 9 8 7 7 8 7 6 6 8 7 9 7 8 8 5 5 9 8 8 7 7 6 6 7 8 6 5 5 4 5 5 7 10 12 14 14 14 14 13 12 11 11 11 11 12 12 14
11 11 11 12 11 11 12 11 12 11 11 10 10 10 10 9 10 10 10 10 10 9 9 10 10 10 10 9 9 9 10 10 9 9 9 8 8 9 10 10 8 8 8 8 7 7 7 7 7 8 9 8 7 7 6 8 8 8 9 7 7 7 6 9 8 6 5 5 8 11 10 10 11 10 12 14 14 13 13 12 12 12 11 12 13
12 12 12 12 11 11 10 10 10 9 9 10 9 9 9 9 9 9 9 9 10 9 9 9 9 9 9 9 9 10 10 10 9 9 10 10 8 8 8 7 8 8 8 7 7 7 7 6 8 9 8 8 8 4 7 7 7 6 8 9 10 9 9 8 8 7 7 6 6 5 6 8 10 12 13 13 15 15 14 12 13 12 13 13 14
10 11 10 10 9 6 1 2 1 1 3 4 5 7 8 9 8 9 9 8 8 8 8 8 8 8 8 8 9 10 11 12 15 13 13 12 9 8 7 7 8 8 8 7 8 7 6 6 6 7 8 9 8 9 10 11 12 11 8 8 8 8 7 6 7 7 8 9 6 4 6 7 7 7 6 6 7 10 11 13 11 15 15 14 13
9 9 9 9 10 10 10 8 7 6 7 8 8 13 10 5 7 6 7 7 8 7 7 7 7 8 9 9 9 13 15 16 16 17 17 16 15 12 10 8 9 8 8 9 8 8 8 8 8 10 11 11 11 11 11 10 8 6 8 9 9 8 7 7 6 5 6 7 7 7 6 5 7 6 6 9 9 10 8 7 7 9 12 15 15
9 8 8 9 8 9 10 9 9 8 10 12 23 23 18 13 8 7 6 7 7 7 7 7 8 8 8 9 8 11 14 15 16 19 16 16 16 15 16 17 14 13 9 9 8 9 9 9 8 10 10 12 11 10 10 8 9 11 9 9 8 8 10 9 8 2 4 9 8 7 7 7 7 8 8 8 8 9 9 10 13 15 16 15 16
8 7 8 9 9 9 9 9 9 10 10 9 14 19 19 19 16 12 9 7 7 7 7 8 7 8 9 8 8 7 9 12 11 12 14 16 16 16 16 17 17 17 16 14 10 8 8 8 8 10 11 12 12 11 9 9 10 9 10 9 10 9 10 9 8 8 6 11 8 8 9 7 9 8 7 9 9 9 11 13 17 16 16 16 16
9 10 10 9 10 10 10 11 10 11 11 13 17 17 16 16 19 17 11 10 9 8 9 9 9 9 8 8 8 8 8 11 10 9 9 11 13 17 17 18 18 18 16 17 16 15 11 11 12 11 9 9 9 11 13 13 11 11 9 9 9 9 8 9 10 10 5 10 8 8 9 7 9 8 9 8 8 8 9 13 17 18 17 17 17
9 10 10 10 9 10 11 11 12 11 12 13 17 19 18 19 19 17 12 12 12 11 11 11 10 10 10 9 9 9 8 7 8 9 9 10 10 9 8 8 9 13 15 18 19 19 16 13 12 11 11 10 11 12 12 10 13 13 11 10 9 9 10 13 10 7 4 11 12 8 7 5 7 8 10 7 6 7 8 12 17 17 18 17 17
10 10 11 11 11 11 11 11 11 11 10 15 17 18 18 17 17 14 11 11 11 11 12 12 12 11 11 10 10 10 9 8 8 11 10 9 9 9 10 11 10 10 10 11 11 11 11 11 12 13 12 13 13 11 12 13 14 11 12 14 14 13 10 4 5 4 5 8 8 7 8 4 6 8 9 5 5 7 6 7 14 16 16 16 16
8 8 8 9 10 10 10 11 10 10 10 15 17 18 19 18 12 7 8 9 10 11 11 11 11 11 11 11 10 10 10 10 12 16 14 10 10 10 11 11 10 10 11 13 15 15 14 13 12 11 10 12 13 10 11 12 11 8 6 4 5 6 7 7 9 5 5 7 8 9 6 4 6 10 7 3 4 6 5 5 8 13 14 15 16
8 9 9 9 9 9 10 10 11 11 11 14 17 18 19 19 12 7 9 9 9 10 10 11 11 11 11 11 11 10 11 11 13 17 16 14 11 12 12 12 11 10 11 9 11 14 14 12 8 7 9 13 14 16 18 20 14 11 8 9 10 10 10 10 9 7 8 7 8 8 6 4 6 8 4 2 5 6 6 5 4 8 12 13 14
10 10 10 9 9 10 11 11 12 11 11 12 18 19 19 18 14 12 11 11 11 10 10 9 8 9 11 17 14 12 12 12 15 17 18 16 12 12 12 12 10 11 12 8 6 7 11 11 8 5 7 13 17 17 18 20 20 16 13 13 13 9 10 9 9 8 6 7 9 9 7 5 5 6 4 1 0 3 3 3 4 4 7 8 11
10 10 10 10 10 10 11 12 14 14 11 11 15 17 16 17 15 10 10 10 10 11 11 10 8 8 9 11 17 15 14 15 17 18 19 17 13 13 12 11 11 12 13 11 11 10 8 7 8 6 5 7 8 12 13 18 19 17 14 13 11 13 12 9 9 6 5 6 8 12 9 5 7 7 6 4 4 4 3 5 5 4 4 4 5
Wind_Direction
138 140 143 149 148 149 128 143 209 280 348 314 321 308 307 314 326 345 347 330 323 352 354 326 316 335 359 336 97 109 113 115 127 131 135 149 151 159 156 150 153 148 140 107 68 68 135 165 131 122 111 98 87 84 84 75 77 81 83 79 78 77 77 76 74 73 70 69 68 65 63 62 64 68 69 69 68 67 67 68 68 69 69 73 76
152 148 156 158 149 136 154 209 220 246 299 293 322 315 308 316 337 357 352 329 326 359 2 324 315 341 358 359 97 109 119 128 133 139 138 142 148 157 158 154 157 156 112 72 93 119 139 117 139 127 117 104 95 89 86 80 78 86 82 83 81 81 80 78 75 74 72 70 70 69 68 70 70 69 73 72 72 68 71 73 73 76 82 85 84
160 158 156 160 168 171 199 204 231 232 256 277 307 311 311 303 327 338 342 326 310 11 9 314 315 343 355 58 86 102 111 118 121 128 137 146 149 154 159 155 162 154 102 100 114 76 123 131 175 129 118 106 99 92 88 88 81 87 84 84 87 84 82 81 78 75 74 73 71 67 63 64 74 75 73 78 73 70 71 73 75 74 74 74 80
160 166 163 161 169 185 198 208 229 228 232 261 290 313 303 299 305 300 288 291 305 354 358 306 330 327 27 55 69 89 111 114 120 132 139 144 143 147 146 155 167 156 124 118 113 108 117 159 152 135 118 109 102 95 95 94 90 93 93 95 90 87 84 80 77 76 74 71 63 59 58 70 76 74 76 77 77 78 77 74 72 72 71 70 70
165 171 171 161 160 173 197 218 228 229 220 229 262 296 308 320 316 337 328 319 319 344 39 13 354 342 49 68 76 91 100 114 124 132 148 147 146 143 129 148 165 160 134 119 117 155 149 135 94 132 118 117 112 106 102 104 95 104 101 98 92 87 82 77 75 75 72 58 49 56 77 85 77 71 77 76 77 76 76 71 68 68 70 82 92
163 164 168 168 165 176 197 212 225 222 211 199 236 286 302 311 316 331 318 345 321 331 8 353 336 336 51 76 81 123 125 119 133 133 146 144 141 138 141 128 138 145 126 124 129 129 143 131 125 133 120 126 123 107 103 101 92 102 103 102 94 86 81 80 78 74 64 58 63 70 72 71 76 82 85 87 76 75 75 70 64 77 79 79 91
165 168 168 171 175 186 197 208 203 208 211 207 196 242 261 284 323 317 312 319 315 313 327 105 342 16 18 56 130 138 127 126 129 131 151 143 138 145 148 146 152 141 124 118 105 101 144 130 99 131 137 129 124 114 98 107 96 101 103 104 93 86 83 84 87 84 72 71 74 83 78 74 75 78 85 87 82 79 73 71 83 80 76 79 79
163 172 170 175 177 193 204 189 189 188 209 201 182 224 244 270 254 214 307 309 331 322 33 43 44 37 357 92 162 160 155 134 144 147 152 144 144 154 159 152 168 171 135 120 130 143 187 127 123 154 144 139 130 124 106 110 105 107 108 107 96 88 86 90 89 82 82 79 75 78 83 84 88 92 88 90 86 80 81 88 80 72 78 92 86
164 182 180 177 181 190 195 192 177 181 189 199 214 212 208 254 271 192 165 271 312 300 308 17 17 47 357 28 197 172 158 152 151 153 146 148 151 158 164 170 168 187 131 125 124 125 123 135 142 158 144 140 138 131 116 117 110 113 113 113 103 96 91 93 93 90 84 77 76 75 75 80 78 82 81 81 89 93 88 83 81 87 90 86 92
171 179 193 184 183 185 182 190 185 173 178 188 223 209 196 196 268 241 168 195 276 287 296 326 42 58 34 12 356 133 112 129 145 159 159 153 161 163 169 168 179 165 141 132 131 133 129 152 147 159 151 145 149 142 125 121 120 117 117 118 108 103 101 100 96 91 83 75 80 85 83 85 87 85 84 89 92 96 94 89 89 91 94 92 89
168 170 193 190 184 185 179 187 192 181 169 193 224 216 204 183 218 277 113 179 236 252 249 194 67 69 53 16 32 22 35 67 121 164 163 162 162 162 161 174 177 159 142 136 132 134 124 137 139 151 150 146 153 149 137 129 121 118 119 117 113 113 108 104 94 95 89 81 80 82 82 79 82 86 92 92 96 101 96 95 94 92 94 93 94
184 171 178 191 188 189 192 180 190 182 175 188 214 210 209 201 221 231 282 303 178 203 183 135 88 78 78 52 38 33 56 63 71 73 91 154 159 163 166 171 171 151 138 136 141 141 143 145 140 134 125 132 185 150 154 133 129 124 122 126 124 114 112 104 102 100 95 88 71 78 81 81 79 92 97 102 99 92 95 100 100 98 98 97 97
191 179 180 183 187 185 189 186 186 190 188 199 204 205 205 195 192 178 219 264 278 179 212 111 76 37 46 47 26 26 41 59 54 34 48 123 166 165 164 166 163 147 140 138 143 141 148 141 143 137 136 151 173 160 150 135 139 133 127 131 126 121 120 114 123 105 101 98 86 83 95 94 95 87 84 102 98 97 100 104 103 102 98 98 100
190 190 184 182 179 182 188 193 183 194 201 206 196 196 191 190 175 198 174 193 244 216 214 129 20 122 93 14 18 3 26 38 51 40 41 61 137 159 157 159 149 144 143 150 133 131 140 144 151 148 144 160 151 151 147 145 146 139 139 130 126 128 125 117 111 114 113 108 96 75 92 96 96 89 94 90 94 104 110 105 100 100 104 105 103
193 190 189 185 184 179 190 191 190 189 192 199 200 200 193 197 184 192 183 129 191 223 194 181 154 126 120 95 292 6 323 11 29 41 33 56 102 119 132 147 155 154 156 165 148 143 150 155 152 154 153 153 148 128 130 149 145 143 138 128 130 133 136 130 123 124 117 112 106 89 86 96 88 101 106 104 107 110 107 104 104 102 104 106 106
194 193 197 189 182 182 182 188 197 193 188 190 198 207 193 196 189 191 174 201 180 210 227 177 135 129 326 88 230 110 353 277 318 334 42 65 88 113 125 134 148 161 166 168 153 147 149 162 159 165 158 148 144 135 146 154 157 150 145 135 137 141 146 133 128 132 122 119 112 108 107 108 106 104 108 107 108 105 109 112 109 109 107 109 111
193 195 197 192 186 182 182 189 192 194 185 190 194 208 203 197 187 181 181 187 217 195 313 203 172 161 137 92 337 48 229 254 6 343 16 50 48 122 138 144 154 159 164 155 154 151 156 164 164 162 159 151 139 147 161 171 163 161 154 147 144 146 148 138 127 132 124 124 112 105 122 113 122 127 122 114 108 112 117 116 108 107 109 110 110
194 193 198 192 190 188 185 185 194 190 189 191 195 205 209 196 193 189 189 191 194 190 202 282 218 160 150 140 175 198 179 242 20 278 354 50 44 121 159 161 205 173 159 156 167 157 161 163 166 166 156 150 153 160 163 154 140 124 126 155 152 153 153 144 132 139 125 124 111 117 127 121 116 129 129 121 119 120 123 116 108 107 111 114 113
193 195 197 198 192 189 187 188 193 190 185 183 200 204 196 200 193 187 195 180 175 205 201 204 93 208 170 165 144 141 149 141 231 78 304 305 66 57 195 190 173 189 201 187 184 167 165 161 168 164 132 137 150 155 155 150 139 150 155 164 158 159 157 156 138 154 134 132 120 130 141 130 132 135 125 118 121 125 124 116 115 117 119 118 118
199 193 200 202 197 196 190 186 190 191 183 193 200 195 186 201 191 198 193 185 182 194 204 185 193 246 152 182 174 100 157 213 177 187 173 179 227 31 17 154 189 202 206 205 208 197 167 185 172 153 136 146 155 167 152 150 151 152 163 167 165 159 162 166 145 159 148 137 126 143 144 132 132 137 126 121 126 129 125 121 124 124 122 122 118
203 199 198 200 201 198 195 189 189 190 189 190 194 187 190 186 186 192 193 202 184 182 185 197 176 210 167 151 129 163 127 54 105 82 150 141 255 177 199 14 340 263 226 210 213 215 194 203 182 155 144 152 157 154 158 156 158 151 171 170 170 164 162 171 147 169 137 128 141 150 150 139 140 143 132 125 131 131 129 128 128 132 126 121 121
202 203 203 202 201 200 198 197 193 191 188 189 187 190 189 190 192 190 196 201 193 183 191 196 192 192 186 164 136 103 88 28 353 69 44 79 209 202 197 171 188 229 233 203 209 207 208 211 173 153 158 159 158 156 157 161 158 156 176 174 172 165 165 170 154 163 142 146 141 157 153 146 147 151 143 134 127 129 132 129 138 137 128 128 132
194 198 202 201 202 202 201 199 194 192 190 183 191 194 190 190 191 192 194 197 195 190 188 190 181 181 184 177 186 176 178 185 205 203 157 170 87 268 126 172 131 168 224 174 201 200 211 228 177 161 162 162 163 163 162 163 161 164 174 176 172 166 166 166 158 161 153 150 148 159 155 150 148 151 147 143 138 138 134 133 140 137 128 130 132
193 194 199 201 204 204 202 197 195 194 193 189 191 193 188 188 190 192 197 198 197 191 187 189 183 188 196 187 194 192 197 195 190 188 187 202 180 187 134 133 81 55 105 149 209 196 204 212 214 174 160 166 167 157 160 163 161 163 173 174 172 167 166 164 166 164 162 159 153 158 158 154 154 149 150 149 143 142 141 141 143 142 131 131 139
194 194 196 193 199 204 198 196 199 198 194 188 192 189 184 188 192 195 194 195 194 192 193 194 190 190 201 200 195 191 204 193 167 185 207 149 164 116 91 87 139 136 130 161 178 205 196 210 201 184 162 167 165 161 161 164 160 167 172 173 173 167 168 169 170 167 168 166 159 162 157 156 155 152 149 149 145 147 151 150 147 144 142 144 150
188 194 189 188 197 204 203 204 202 198 193 192 190 187 183 188 192 194 198 197 189 198 200 197 194 200 186 192 194 196 205 180 176 166 168 156 171 170 137 76 97 132 148 214 154 177 187 205 204 176 171 161 166 160 164 170 170 172 175 169 171 164 173 168 171 171 173 179 165 162 164 160 159 156 154 149 150 154 154 151 150 156 155 149 155
188 186 186 189 197 206 208 205 199 195 194 195 193 187 185 187 191 197 196 189 196 195 203 195 196 190 191 197 202 198 199 177 168 185 171 187 181 160 148 135 90 106 155 181 185 217 167 186 190 172 180 169 165 171 168 176 173 174 170 166 166 167 171 165 168 175 177 182 178 165 168 161 158 146 149 159 156 159 156 154 158 157 162 162 161
244 221 206 197 196 200 206 207 198 195 195 192 189 187 186 187 192 192 198 188 193 199 202 199 205 194 193 197 195 210 194 179 183 180 184 191 178 155 165 160 149 179 194 197 198 219 162 172 189 186 180 181 175 176 176 173 166 175 174 164 165 170 170 165 167 178 182 184 188 172 166 160 151 153 157 167 163 167 167 166 169 169 167 170 172
194 191 191 198 199 198 205 206 198 195 193 192 189 188 184 189 190 191 198 190 194 201 199 203 208 191 187 189 199 204 196 186 183 183 185 178 176 174 173 173 175 149 179 208 222 198 180 182 174 195 186 183 170 168 167 178 172 170 177 169 167 164 173 165 170 174 183 186 193 177 175 170 163 159 162 171 170 170 173 170 171 183 175 179 182
211 208 196 193 194 197 202 204 199 193 192 192 192 190 187 192 193 195 195 184 197 200 205 204 207 188 190 191 195 205 192 177 189 184 181 186 174 178 183 184 168 174 169 183 222 196 191 193 180 182 189 184 178 167 172 175 169 174 177 172 168 170 169 168 168 171 175 179 182 186 180 173 176 177 174 175 178 173 175 179 176 185 188 190 181
203 211 210 201 195 195 196 199 197 197 191 192 192 193 191 195 193 197 192 189 197 203 206 200 204 191 193 198 194 207 190 190 182 177 184 178 188 176 184 161 181 179 163 171 190 236 190 191 193 180 179 182 177 167 163 168 173 177 178 174 175 166 166 168 169 170 173 171 178 168 159 170 178 184 179 181 192 182 182 183 185 190 189 191 173
205 201 202 207 205 199 198 196 196 195 192 194 193 195 192 198 194 196 194 192 199 207 207 202 198 194 197 201 195 199 195 181 175 175 180 193 184 175 173 175 178 175 161 158 194 205 193 193 188 177 178 171 167 171 176 159 171 180 174 171 171 160 167 163 173 171 173 174 175 171 166 173 179 185 189 187 190 197 190 185 188 195 196 188 154
201 202 202 204 206 203 199 196 195 192 192 192 193 194 195 197 196 196 191 194 203 210 206 209 207 198 201 204 197 196 182 183 185 174 177 178 177 179 170 164 168 163 161 165 182 167 166 141 181 170 172 166 170 180 167 164 162 185 185 162 158 161 168 168 172 176 176 176 174 173 173 172 175 182 197 195 189 200 199 196 193 186 159 145 158
200 201 202 203 205 203 200 196 194 194 193 194 191 191 197 198 196 191 192 195 204 208 203 214 207 207 202 206 203 184 181 192 182 179 176 166 173 166 174 176 177 177 185 159 176 153 174 151 164 160 159 171 173 174 174 171 170 172 180 171 168 176 172 168 176 180 182 181 178 178 178 176 178 179 196 213 188 198 217 179 206 178 155 156 165
202 203 203 203 202 202 204 202 195 195 195 196 194 192 198 198 196 194 194 196 202 206 209 214 208 201 204 210 202 178 172 182 191 188 170 171 168 173 180 180 180 182 183 177 139 164 162 184 165 165 170 174 181 177 178 178 170 173 174 173 172 180 179 177 180 178 186 187 186 183 183 181 180 182 186 208 194 188 214 164 185 208 161 163 166
199 202 203 203 201 202 205 206 203 200 197 196 195 199 201 199 198 197 196 199 203 209 211 212 207 201 208 206 201 176 173 184 187 182 178 168 169 176 176 187 178 171 180 179 177 143 163 164 190 176 174 169 177 173 163 165 165 173 181 170 173 180 176 181 187 185 188 190 189 188 187 185 185 186 187 197 191 196 206 170 167 181 181 166 167
200 199 202 203 205 205 209 209 204 204 201 196 196 201 205 203 200 198 198 200 205 210 212 212 207 205 206 208 188 175 179 189 187 182 175 174 178 171 180 179 182 165 163 183 174 153 150 174 170 172 163 169 156 163 164 159 171 179 171 177 184 184 190 191 190 195 178 189 192 193 191 190 190 192 189 195 187 196 202 173 176 168 177 178 174
199 201 201 199 205 208 212 214 211 206 202 198 199 202 203 203 203 202 200 201 206 210 211 213 211 206 208 200 182 178 187 195 193 183 177 183 174 181 180 177 174 156 163 173 172 164 159 162 161 158 171 167 157 165 178 173 163 170 183 183 179 191 189 189 191 184 156 170 179 198 199 197 195 196 194 193 191 192 199 182 179 179 180 185 184
199 201 205 206 206 207 209 211 215 209 203 199 199 201 201 201 204 204 202 203 206 209 212 212 210 207 204 194 181 182 197 201 192 183 182 185 183 190 190 177 165 160 163 165 169 163 154 150 168 173 170 175 165 164 173 178 178 179 177 171 189 189 194 197 201 197 175 181 198 195 195 195 195 198 200 197 193 193 194 186 184 184 179 183 195
202 203 204 207 208 211 217 220 218 209 197 197 201 201 201 201 203 205 203 203 206 208 210 209 207 207 203 196 186 186 202 202 196 190 184 186 185 192 194 174 160 162 163 161 160 158 153 160 170 176 181 168 168 145 149 162 172 199 191 179 189 189 199 203 203 188 193 183 173 181 199 196 201 203 200 202 199 196 193 187 185 179 180 187 194
202 204 204 203 201 187 156 88 58 7 322 268 210 198 197 205 203 204 205 205 205 209 213 213 211 210 209 204 197 190 198 202 200 195 194 187 178 184 186 178 164 169 164 168 166 160 163 160 168 169 171 177 175 162 164 180 192 191 174 180 190 194 189 192 209 202 189 189 184 160 187 192 184 193 187 188 205 198 193 186 189 190 187 188 191
201 197 196 196 199 200 203 196 199 190 199 226 238 266 274 240 205 205 204 207 205 208 212 216 217 218 217 213 208 194 195 202 202 202 200 193 187 185 177 181 173 172 175 171 173 172 165 169 175 173 179 190 186 189 183 194 176 162 162 177 193 188 173 199 204 203 166 179 178 194 209 187 191 186 186 200 196 187 184 188 194 187 194 191 192
196 191 186 190 191 196 196 199 206 204 209 203 196 201 207 217 219 227 223 212 207 205 208 208 215 218 227 227 223 205 199 205 206 204 200 196 194 192 184 185 181 180 176 177 184 181 175 180 172 177 186 193 197 191 194 179 181 183 177 178 186 166 177 181 201 188 200 180 189 199 212 201 192 195 201 203 191 187 188 195 192 190 192 194 197
190 180 187 194 190 191 192 195 200 199 209 215 207 203 199 195 187 195 211 214 203 206 204 207 213 215 220 225 227 224 216 214 209 201 201 199 197 196 191 192 192 193 184 182 184 188 190 178 174 188 186 197 196 192 191 181 183 181 188 186 184 176 181 193 200 204 190 184 190 202 219 187 199 209 209 209 198 193 195 193 191 191 194 194 196
182 186 197 193 191 191 192 197 201 202 214 197 192 203 209 203 194 192 201 197 199 202 203 206 212 213 213 215 223 226 232 223 213 200 191 198 204 202 197 196 198 197 200 199 189 190 186 196 194 194 190 184 184 197 195 192 180 181 177 186 189 189 191 199 210 211 179 179 184 204 219 197 191 209 219 212 200 197 200 194 191 190 194 196 195
186 191 194 198 195 192 194 197 204 208 210 194 193 197 200 202 202 196 202 196 197 200 202 206 209 211 209 210 215 224 226 215 207 202 196 196 187 194 205 209 211 212 207 203 203 199 188 196 197 201 200 183 188 197 192 169 173 186 180 191 181 194 196 209 210 196 125 169 187 183 214 194 196 205 221 214 194 202 206 200 193 192 193 197 198
190 191 195 198 201 199 196 198 204 212 214 196 192 198 203 203 205 202 211 206 201 201 202 203 206 206 206 207 212 217 210 206 201 200 196 195 189 195 201 206 212 204 203 211 209 206 203 207 203 209 194 197 202 187 171 182 190 186 184 188 186 195 192 98 71 116 147 184 175 160 214 180 185 208 224 208 193 208 204 193 193 197 197 198 198
195 198 204 205 208 207 203 203 207 213 216 202 199 198 201 205 193 201 230 221 212 206 203 203 205 205 204 203 205 207 206 209 208 198 196 188 190 195 202 210 213 216 222 221 210 205 204 205 207 206 202 197 198 168 165 177 192 185 171 130 142 170 174 188 203 164 180 185 183 177 187 186 185 197 214 183 176 207 202 205 196 195 198 198 199
187 192 201 205 208 208 207 208 210 216 218 206 200 200 199 196 174 188 206 220 224 220 213 207 205 204 202 201 201 203 206 212 205 194 196 182 199 201 206 209 209 209 227 221 213 218 228 233 231 213 185 181 174 165 168 179 182 170 159 168 184 184 185 191 201 177 198 167 192 193 173 182 187 196 178 196 204 212 207 209 196 196 194 199 200
191 194 198 205 206 206 208 212 212 216 221 211 203 204 197 187 180 190 197 202 213 220 226 216 204 204 206 201 198 201 204 212 199 189 193 189 203 206 208 211 207 215 227 210 197 214 215 220 221 205 187 186 184 176 177 183 178 166 171 186 187 171 189 191 197 191 172 174 193 174 165 200 150 170 152 124 267 261 217 202 192 185 192 200 202
199 198 198 203 207 207 210 214 213 216 221 217 206 210 199 181 183 194 195 202 204 214 215 216 211 207 208 202 199 201 206 210 191 189 192 193 205 208 208 206 213 219 224 198 198 199 193 202 226 203 230 215 192 190 198 185 179 183 189 189 168 181 190 191 191 152 168 225 193 172 183 181 152 180 152 136 218 227 193 195 189 186 183 169 180